CZ-6A DEB, 55215

Orbit data source: Space-Track

CZ-6A DEB, 55215 is space debris in SSO originally from a launch on Fri, 11 Nov 2022 UTC launched from the Taiyaun Space Center, China (TSC). Debris objects in space refer to the collection of defunct objects orbiting the Earth. Examples of debris include non-operational satellites, rocket bodies, and fragments generated from explosions, collisions, or faulty payload assembly.

Loading next visibility...
Identifier
55215, 2022-151WG
Orbit
SSO
Country
Flag of CNCN / PRC
Related business
Manufacturer
SAST
Mission
Spacecraft
Bus & Motor
Unknown
Mass
Unknown
Launch date (UTC)
2022-11-11 (4 years ago)
Launch vehicle
Unknown
Launch site
Taiyaun Space Center, China (TSC)
Object type
Payload
Rocket body
Debris
Shape & HBR
Unknown shape, 0.1 m
Radar Cross Section
Medium (>0.1 m² and <1 m²)

Expand to show TLE details & history
Last TLE update: 17 hours ago

TLE from 17 hours ago
0 CZ-6A DEB
1 55215U 22151WG  26236.15431490  .00020611  00000-0  26446-2 0  9999
2 55215  98.6343 304.4361 0050921  88.3231 272.3811 14.80338193194767
Epoch: 2026-08-24T03:42Z
TLE epoch observation values (Epoch: 2026-08-24T03:42:12.807Z)
Latitude
0.00003°
Longitude
-83.55736°
Altitude
629.955 km
Speed
7.544 km/s
True Right ascension
20h 17m 44s
True Declination
0° 00' 00"
Sunlit
Object was in full shadow at epoch
Visualization orbit readout
Latitude
Unknown
Longitude
Unknown
Altitude
Unknown
Speed
Unknown
Apparent Right ascension
Unknown
Apparent Declination
Unknown
Sunlit
N/A
Visualization observer readout
Local Sidereal Time
12:11:38
Azimuth
Unknown
Elevation
Unknown
Doppler factor
Unknown
Orbital elements
Apogee altitude
660.994 km
Perigee altitude
589.669 km
Semi-major axis
7,003.468 km
Eccentricity
0.00509
Inclination
98.6343°
RAAN
304.4361°
Arg. of periapsis
88.3231°
True anomaly
271.79795°
Mean anomaly
272.3811°
Eccentric anomaly
272.08954°
Mean motion
3.70317 °/min
Orbital period
97.21 mins
BSTAR
0.0026446
Loading maneuver chart data...
Computing Atmospheric mass density...
Loading historical data...
Loading historical data...
Loading historical data...
Loading historical data...
Loading historical data...
Loading historical data...
Loading historical data...

Documentation

Showing up to 5 results
|